Location: Northern Prairie Star Party
(53.2167°N, 112.5333°W)
Time: 10:05:49
(UTC-06:00)

Daily predictions for brighter satellites

Satellite Brightness Start Highest point End
(mag) Time Altitude Azimuth Time Altitude Azimuth Time Altitude Azimuth
Cosmos 1763 Rocket 4.4 22:45:38 10° NW 22:50:27 43° WSW 22:55:13 10° S
Cosmos 1869 4.5 22:47:30 10° N 22:51:02 30° ENE 22:54:33 10° SE
Cosmos 841 Rocket 4.2 22:46:38 10° NNW 22:51:45 52° WSW 22:56:48 10° S
USA 245 4.3 22:48:10 10° S 22:52:07 56° W 22:57:04 10° NNW
Cosmos 1726 3.9 22:50:00 10° NNW 22:53:14 29° W 22:56:26 10° SSW
Cosmos 220 Rocket 4.1 22:49:42 10° SSW 22:54:07 90° E 22:58:31 10° NNE
CZ-3B DEB 4.2 22:45:47 10° W 22:56:40 83° N 23:09:43 10° E
Cosmos 1626 2.5 22:53:08 10° SSE 22:56:42 46° E 23:00:18 10° NNE
Meteor 2-12 Rocket 4.5 22:51:16 10° N 22:57:23 86° E 23:03:27 10° S
Cosmos 1354 Rocket 4.5 22:52:57 10° S 22:57:53 43° ESE 23:02:49 10° NE
Cosmos 2228 Rocket 4.2 22:56:25 10° NNW 23:00:47 44° W 23:05:07 10° SSW
Cosmos 2233 Rocket 4.2 22:59:26 10° NNW 23:05:40 76° W 23:11:49 10° S
Cosmos 1486 Rocket 4.1 23:01:06 10° SSW 23:06:23 85° ESE 23:11:45 10° NNE
CZ-4C R/B 3.5 23:03:33 10° SSE 23:07:32 21° ESE 23:11:54 10° ENE
Cosmos 1703 3.4 23:06:23 10° S 23:10:19 64° E 23:14:18 10° NNE
CZ-4C R/B 4.5 23:12:59 10° SE 23:17:04 40° ENE 23:21:16 10° N
Cosmos 2151 3.1 23:14:48 10° SSW 23:19:06 79° W 23:23:27 10° N
DMSP B5D2-2 4.1 23:14:15 10° NNE 23:19:29 67° ESE 23:24:40 10° S
Spot 4 4.2 23:16:00 10° SSE 23:20:46 58° ENE 23:25:35 10° N
USA 234 3.8 23:14:49 10° ENE 23:20:47 36° SE 23:26:42 10° SSW
CZ-3A R/B 1.2 23:20:32 10° SW 23:20:52 11° SSW 23:20:52 11° SSW
Sich 1 3.9 23:20:16 11° SSE 23:23:58 33° E 23:27:50 10° NNE
ATLAS 5 CENTAUR R/B 3.6 23:21:53 10° W 23:26:35 40° NNW 23:31:48 10° NE
Cosmos 2263 Rocket 2.2 23:22:43 10° SSW 23:28:18 85° ESE 23:33:58 10° NNE
Cosmos 1707 Rocket 3.6 23:34:02 10° NNW 23:38:33 87° WSW 23:42:40 12° S
Abrixas 3.4 23:37:38 10° SW 23:39:52 22° SSE 23:42:05 10° ESE
Cosmos 540 Rocket 4.4 23:35:54 10° NW 23:40:45 42° WSW 23:45:32 10° S
deb Chang Zheng 4 3.8 23:38:04 10° NNE 23:42:23 55° ESE 23:46:29 11° S
SL-24 R/B - RUBIN 2 4.2 23:38:14 10° NW 23:43:54 64° SW 23:48:14 14° SSE
CZ-4B R/B 4.0 23:39:07 10° NNE 23:44:13 47° E 23:48:46 12° S
Cosmos 2082 Rocket 3.7 23:42:23 10° NNW 23:47:24 32° NE 23:52:24 10° ESE
COSMOS 2406 3.3 23:42:26 10° NNW 23:48:08 78° WSW 23:53:07 14° SSE
Cosmos 1455 3.3 23:44:45 10° NNW 23:48:23 39° W 23:51:57 10° SSW
IGS 5A 4.3 23:46:41 10° S 23:50:40 44° W 23:54:42 10° NNW
Cosmos 1503 Rocket 4.1 23:47:59 10° SSW 23:53:11 78° WNW 23:58:23 10° NNE
Cosmos 292 Rocket 3.8 23:49:53 10° NNW 23:54:41 85° WSW 23:58:39 15° SSE
ALOS 2 3.8 23:50:56 11° SE 23:54:44 33° ENE 23:58:40 10° N
Cosmos 2084 Rocket 4.3 23:53:01 10° WNW 23:56:26 31° SW 23:59:02 15° S
